TimeMDT,TemperatureF,Dew PointF,Humidity,Sea Level PressureIn,VisibilityMPH,Wind Direction,Wind SpeedMPH,Gust SpeedMPH,PrecipitationIn,Events,Conditions,WindDirDegrees,DateUTC
12:51 AM,62.1,55.9,80,30.16,10.0,East,11.5,-,N/A,,Clear,90,2013-07-17 06:51:00
1:51 AM,61.0,53.1,75,30.16,10.0,East,11.5,-,N/A,,Clear,100,2013-07-17 07:51:00
2:51 AM,60.1,54.0,80,30.15,10.0,East,9.2,-,N/A,,Scattered Clouds,80,2013-07-17 08:51:00
2:57 AM,60.8,53.6,77,30.20,10.0,East,10.4,-,N/A,,Mostly Cloudy,80,2013-07-17 08:57:00
3:17 AM,60.8,55.4,82,30.20,10.0,East,15.0,-,N/A,,Overcast,80,2013-07-17 09:17:00
3:51 AM,62.1,55.9,80,30.15,10.0,East,13.8,-,N/A,,Overcast,90,2013-07-17 09:51:00
4:51 AM,61.0,57.0,87,30.16,7.0,ENE,10.4,-,N/A,,Overcast,70,2013-07-17 10:51:00
5:41 AM,60.8,57.2,88,30.21,4.0,East,11.5,-,N/A,,Overcast,80,2013-07-17 11:41:00
5:51 AM,61.0,57.9,90,30.16,3.0,East,10.4,-,N/A,,Overcast,90,2013-07-17 11:51:00
6:51 AM,62.1,57.9,86,30.16,5.0,ENE,12.7,-,N/A,,Overcast,70,2013-07-17 12:51:00
7:51 AM,63.0,57.9,84,30.17,9.0,East,9.2,-,N/A,,Overcast,100,2013-07-17 13:51:00
7:58 AM,62.6,57.2,82,30.22,9.0,East,8.1,-,N/A,,Overcast,90,2013-07-17 13:58:00
8:51 AM,63.0,57.9,84,30.17,9.0,East,10.4,-,N/A,,Overcast,90,2013-07-17 14:51:00
9:51 AM,64.0,57.9,80,30.17,10.0,ESE,9.2,-,N/A,,Overcast,110,2013-07-17 15:51:00
10:39 AM,66.2,59.0,78,30.20,10.0,ESE,9.2,-,N/A,,Overcast,120,2013-07-17 16:39:00
10:51 AM,66.9,59.0,76,30.15,10.0,ESE,8.1,-,N/A,,Overcast,120,2013-07-17 16:51:00
11:41 AM,71.6,60.8,69,30.18,10.0,East,9.2,-,N/A,,Scattered Clouds,100,2013-07-17 17:41:00
11:51 AM,72.0,61.0,68,30.13,10.0,ESE,8.1,-,N/A,,Partly Cloudy,120,2013-07-17 17:51:00
12:51 PM,77.0,61.0,58,30.10,10.0,East,6.9,-,N/A,,Clear,90,2013-07-17 18:51:00
1:51 PM,81.0,62.1,52,30.08,10.0,East,5.8,-,N/A,,Clear,90,2013-07-17 19:51:00
2:51 PM,84.0,61.0,46,30.07,10.0,Variable,4.6,-,N/A,,Clear,0,2013-07-17 20:51:00
3:51 PM,86.0,62.1,44,30.04,10.0,East,10.4,-,N/A,,Clear,90,2013-07-17 21:51:00
4:51 PM,86.0,63.0,46,30.02,10.0,ENE,11.5,-,N/A,,Clear,70,2013-07-17 22:51:00
5:51 PM,86.0,61.0,43,30.00,10.0,East,10.4,-,N/A,,Clear,90,2013-07-17 23:51:00
6:51 PM,84.0,62.1,47,29.98,10.0,East,10.4,-,N/A,,Clear,80,2013-07-18 00:51:00
7:51 PM,80.1,64.0,58,29.96,10.0,East,10.4,-,N/A,,Clear,80,2013-07-18 01:51:00
8:51 PM,75.9,63.0,64,29.97,10.0,East,6.9,-,N/A,,Clear,90,2013-07-18 02:51:00
9:51 PM,72.0,62.1,71,29.99,10.0,Calm,Calm,-,N/A,,Clear,0,2013-07-18 03:51:00
10:51 PM,70.0,62.1,76,29.97,10.0,SE,4.6,-,N/A,,Clear,130,2013-07-18 04:51:00
11:51 PM,71.1,63.0,75,29.96,10.0,ESE,5.8,-,N/A,,Clear,120,2013-07-18 05:51:00